Погода в Ортизеи

Италия     46°34′24″N   11°39′48″E
темп.,
°C
ветер,
м/с
пор.,
м/с
влажн.,
%
обл.,
%
осадки,
мм/ч
давл.,
гПа
погр.,
м
19 апреля, пн
пн1923:00−6св1198100 0.9 102017
02:00−7св1198100 1.3 102127
05:00−8св119794 0.0 102113
08:00−5ссв1291100 0.0 101999
11:00−1с1277100 0.0 1016874
14:00+1с1269100 0.3 10141300
17:00+1с1273100 0.9 1013883
20:00−3св119398 1.5 101711
20 апреля, вт
вт2023:00−6всв119497 0.0 102012
02:00−8в119538 0.0 102111
05:00−8всв1195100 0.0 102112
08:00−3с118793 0.0 101793
11:00+1ссз117520 0.0 1015886
14:00+4з116897 0.4 10131256
17:00+2зюз1176100 1.9 1013792
20:00−1ю129980 4.2 101668
21 апреля, ср
ср2123:00−4ююв119898 0.4 102013
02:00−4ююв119864 0.4 102011
05:00−3зюз009970 0.0 101934
08:00−2з119575 0.0 1019208
11:00+1з118494 0.1 1018731
14:00+3ююз127992 0.7 1016784
17:00+3ю228166 1.6 1015698
20:00−1ююв219496 2.4 101817
22 апреля, чт
чт2223:00−1ю1191100 0.1 101912
02:00−2юз119893 0.3 102026
05:00−2зюз119885 0.3 102047
08:00−1зсз119266 0.4 1019311
11:00+1з118597 0.1 1018671
14:00+4з127796 0.6 1016995
17:00+4з127278 0.4 1014931
20:000с1299100 1.1 101880
23 апреля, пт
пт2323:00−2всв119977 0.3 102050
02:00−3всв119847 0.3 102230
05:00−4всв119836 0.0 102234
08:00−1ссв11875 0.0 1021144
11:00+4ссз116625 0.0 1019966
14:00+7сз115246 0.1 10181678
17:00+6сз125057 0.1 10171626
20:000юв11858 0.1 102110